Hourly Data Report for February 23, 2006

TORONTO CITY
ONTARIO

43°40'00.000" N
79°24'00.000" W
112.50 m
6158355
71508
XTO

Download Data

Hourly Data (February 2006)
Hourly Data Report for February 23, 2006
TIME
LST
Temp Definition
°C
Dew Point Definition
°C
Rel Hum Definition
%
Precip. Amount Definition
mm

Wind Dir Definition
10's deg

Wind Spd Definition
km/h
Visibility Definition
km
Stn Press Definition
kPa
Hmdx Definition


Wind Chill Definition


Weather Definition


00:00 1.2 -3.0 74   LegendMM LegendMM   99.60     LegendNANA
01:00 1.0 -3.4 72   LegendMM LegendMM   99.60     LegendNANA
02:00 1.2 -3.6 70   LegendMM LegendMM   99.61     LegendNANA
03:00 1.8 -2.4 74   LegendMM LegendMM   99.57     LegendNANA
04:00 1.3 -2.6 75   LegendMM LegendMM   99.55     LegendNANA
05:00 0.5 -3.2 76   LegendMM LegendMM   99.56     LegendNANA
06:00 0.7 -2.6 79   LegendMM LegendMM   99.58     LegendNANA
07:00 0.5 -2.7 79   LegendMM LegendMM   99.61     LegendNANA
08:00 0.4 -3.0 78   LegendMM LegendMM   99.63     LegendNANA
09:00 1.7 -3.5 68   LegendMM LegendMM   99.67     LegendNANA
10:00 2.4 -3.6 65   LegendMM LegendMM   99.68     LegendNANA
11:00 4.5 -5.1 50   LegendMM LegendMM   99.68     LegendNANA
12:00 5.3 -4.9 48   LegendMM LegendMM   99.67     LegendNANA
13:00 6.1 -3.8 49   LegendMM LegendMM   99.56     LegendNANA
14:00 5.3 -3.6 53   LegendMM LegendMM   99.46     LegendNANA
15:00 4.8 -1.7 63   LegendMM LegendMM   99.36     LegendNANA
16:00 4.6 -1.5 65   LegendMM LegendMM   99.36     LegendNANA
17:00 2.1 0.9 92   LegendMM LegendMM   99.44     LegendNANA
18:00 2.3 -0.9 79   LegendMM LegendMM   99.46     LegendNANA
19:00 0.7 -3.8 72   LegendMM LegendMM   99.58     LegendNANA
20:00 0.1 -5.1 68   LegendMM LegendMM   99.67     LegendNANA
21:00 -0.7 -6.9 63   LegendMM LegendMM   99.73     LegendNANA
22:00 -1.5 -8.1 61   LegendMM LegendMM   99.82     LegendNANA
23:00 -2.2 -8.3 63   LegendMM LegendMM   99.84     LegendNANA

Notes on Data Quality.

Legend

  • E = Estimated
  • M = Missing
  • NA = Not Available*
  • [empty] = Indicates an unobserved value
Date modified: